Flag for U.S.A. Weather past 2 weeks in Charlotte, North Carolina, U.S.A.

Now
49 °F

Rain. Fog.


Feels Like: 45 °F
Forecast: 47 / 57 °F
Wind: 9 mph from North

Location: Charlotte / Douglas International Airport


UV Index: 0 (Low)

Visibility: 4 mi


Pressure: 30.26 "Hg

Humidity: 93%

Dew point: 47 °F

Location of CharlotteLocation

Historic Weather in Charlotte

°F

Charlotte temperature yesterday

Maximum temperature yesterday: 64 °F (at 4:52 PM)
Minimum temperature yesterday: 38 °F (at 5:52 AM)
Average temperature yesterday: 51 °F

Past Weeks' High & Low Weather Summary

 TemperatureHumidityPressure
High80 °F (Apr 4, 4:52 PM)100% (Apr 7, 5:59 AM)30.54 "Hg (Apr 7, 5:59 AM)
Low32 °F (Apr 16, 6:52 AM)23% (Apr 10, 3:52 PM)29.59 "Hg (Apr 8, 4:52 AM)
Average60 °F58%30.04 "Hg
* Reported Apr 3 7:52 PM — Apr 18 7:52 PM, Charlotte, Weather by CustomWeather, © 2014

Note: Actual official high and low records may vary slightly from our data, if they occured in-between our weather recording intervals... More about our weather records

Advertising

Historic Weather Conditions — Data for Previous 24 hours

 ConditionsComfort  
Time TempWeatherWind HumidityBarometerVisibility
7:52 PM
Apr 18
49 °FRain. Fog.9 mph93%30.26 "Hg4 mi
6:52 PM50 °FRain. Fog.9 mph86%30.26 "Hg5 mi
5:52 PM52 °FLight rain. More clouds than sun.6 mph77%30.26 "Hg6 mi
4:52 PM55 °FMostly cloudy.8 mph59%30.25 "Hg10 mi
3:52 PM56 °FOvercast.8 mph58%30.27 "Hg10 mi
2:52 PM56 °FOvercast.9 mph58%30.31 "Hg10 mi
1:52 PM57 °FOvercast.9 mph55%30.34 "Hg10 mi
12:52 PM56 °FOvercast.7 mph58%30.37 "Hg10 mi
11:52 AM54 °FOvercast.9 mph64%30.39 "Hg10 mi
10:52 AM52 °FMore clouds than sun.9 mph64%30.42 "Hg10 mi
9:52 AM50 °FMore clouds than sun.6 mph66%30.41 "Hg10 mi
8:52 AM47 °FMore clouds than sun.9 mph74%30.39 "Hg10 mi
7:52 AM46 °FHigh level clouds.9 mph77%30.39 "Hg10 mi
6:52 AM46 °FOvercast.8 mph79%30.39 "Hg10 mi
5:52 AM47 °FOvercast.7 mph77%30.38 "Hg10 mi
4:52 AM48 °FHigh level clouds.7 mph68%30.37 "Hg10 mi
3:52 AM50 °FHigh level clouds.5 mph66%30.37 "Hg10 mi
2:52 AM50 °FHigh level clouds.9 mph59%30.36 "Hg10 mi
1:52 AM51 °FClear.7 mph50%30.40 "Hg10 mi
12:52 AM52 °FPassing clouds.5 mph47%30.40 "Hg10 mi
11:52 PM
Apr 17
53 °FPassing clouds.7 mph41%30.42 "Hg10 mi
10:52 PM56 °FClear.8 mph36%30.42 "Hg10 mi
9:52 PM54 °FClear.3 mph40%30.43 "Hg10 mi
8:52 PM59 °FPassing clouds.5 mph28%30.41 "Hg10 mi
Weather by CustomWeather, © 2014

See weather overview